Location: Waco, TX
(31.5480°N, 97.1670°W)
Time: 16:11:59
(UTC-05:00)

ISS - Pass Details

Date: 15 September 2019
Orbit: 411 x 421 km, 51.6° (Epoch: 17 September)

Event Time Altitude Azimuth Distance (km) Brightness Sun altitude
Rises 06:15:20 0° 312° (NW) 2,349 - -12.9°
Reaches altitude 10° 06:17:26 10° 310° (NW) 1,486 - -12.5°
Exits shadow 06:17:28 10° 310° (NW) 1,470 -1.4 -12.5°
Maximum altitude 06:20:44 66° 228° (SW) 454 -3.8 -11.8°
Drops below altitude 10° 06:24:03 10° 144° (SE) 1,484 -0.6 -11.1°
Sets 06:26:08 0° 142° (SE) 2,345 0.4 -10.7°
